Location: Beugnon
(47.6222°N, 3.7850°E)
Time: 08:56:25
(UTC+00:00)

SL-4 R/B - Pass Details

Date: 09 April 2020
Orbit: 428 x 666 km, 51.6° (Epoch: 06 June)

Event Time Altitude Azimuth Distance (km) Brightness Sun altitude
Rises 20:41:10 0° 279° (W) 2,393 6.3 -21.0°
Reaches altitude 10° 20:43:20 10° 286° (WNW) 1,529 5.2 -21.3°
Maximum altitude 20:46:35 41° 359° (N) 649 2.6 -21.7°
Enters shadow 20:47:07 38° 24° (NNE) 688 2.6 -21.8°
